Year,Month,Day,Hour,Minute,Value (Times are PST for temperature in C)
2021,07,05,00,00,14.70
2021,07,05,00,01,14.70
2021,07,05,00,02,14.70
2021,07,05,00,03,14.70
2021,07,05,00,04,14.70
2021,07,05,00,05,14.70
2021,07,05,00,06,14.70
2021,07,05,00,07,14.70
2021,07,05,00,08,14.70
2021,07,05,00,09,14.70
2021,07,05,00,10,14.70
2021,07,05,00,11,14.70
2021,07,05,00,12,14.80
2021,07,05,00,13,14.80
2021,07,05,00,14,14.80
2021,07,05,00,15,14.80
2021,07,05,00,16,14.80
2021,07,05,00,17,14.80
2021,07,05,00,18,14.80
2021,07,05,00,19,14.80
2021,07,05,00,20,14.80
2021,07,05,00,21,14.80
2021,07,05,00,22,14.80
2021,07,05,00,23,14.80
2021,07,05,00,24,14.80
2021,07,05,00,25,14.80
2021,07,05,00,26,14.80
2021,07,05,00,27,14.80
2021,07,05,00,28,14.80
2021,07,05,00,29,14.80
2021,07,05,00,30,14.80
2021,07,05,00,31,14.80
2021,07,05,00,32,14.80
2021,07,05,00,33,14.80
2021,07,05,00,34,14.80
2021,07,05,00,35,14.80
2021,07,05,00,36,14.80
2021,07,05,00,37,14.80
2021,07,05,00,38,14.80
2021,07,05,00,39,14.80
2021,07,05,00,40,14.80
2021,07,05,00,41,14.80
2021,07,05,00,42,14.80
2021,07,05,00,43,14.80
2021,07,05,00,44,14.80
2021,07,05,00,45,14.80
2021,07,05,00,46,14.80
2021,07,05,00,47,14.80
2021,07,05,00,48,14.80
2021,07,05,00,49,14.80
2021,07,05,00,50,14.80
2021,07,05,00,51,14.80
2021,07,05,00,52,14.80
2021,07,05,00,53,14.80
2021,07,05,00,54,14.80
2021,07,05,00,55,14.80
2021,07,05,00,56,14.80
2021,07,05,00,57,14.80
2021,07,05,00,58,14.80
2021,07,05,00,59,14.80
2021,07,05,01,00,14.80
2021,07,05,01,01,14.80
2021,07,05,01,02,14.80
2021,07,05,01,03,14.80
2021,07,05,01,04,14.80
2021,07,05,01,05,14.80
2021,07,05,01,06,14.80
2021,07,05,01,07,14.80
2021,07,05,01,08,14.80
2021,07,05,01,09,14.80
2021,07,05,01,10,14.80
2021,07,05,01,11,14.80
2021,07,05,01,12,14.80
2021,07,05,01,13,14.80
2021,07,05,01,14,14.80
2021,07,05,01,15,14.80
2021,07,05,01,16,14.80
2021,07,05,01,17,14.80
2021,07,05,01,18,14.80
2021,07,05,01,19,14.80
2021,07,05,01,20,14.80
2021,07,05,01,21,14.80
2021,07,05,01,22,14.80
2021,07,05,01,23,14.80
2021,07,05,01,24,14.80
2021,07,05,01,25,14.80
2021,07,05,01,26,14.80
2021,07,05,01,27,14.80
2021,07,05,01,28,14.80
2021,07,05,01,29,14.80
2021,07,05,01,30,14.80
2021,07,05,01,31,14.80
2021,07,05,01,32,14.80
2021,07,05,01,33,14.80
2021,07,05,01,34,14.80
2021,07,05,01,35,14.80
2021,07,05,01,36,14.80
2021,07,05,01,37,14.90
2021,07,05,01,38,14.90
2021,07,05,01,39,14.90
2021,07,05,01,40,14.80
2021,07,05,01,41,14.80
2021,07,05,01,42,14.80
2021,07,05,01,43,14.80
2021,07,05,01,44,14.70
2021,07,05,01,45,14.70
2021,07,05,01,46,14.70
2021,07,05,01,47,14.70
2021,07,05,01,48,14.70
2021,07,05,01,49,14.60
2021,07,05,01,50,14.60
2021,07,05,01,51,14.60
2021,07,05,01,52,14.60
2021,07,05,01,53,14.60
2021,07,05,01,54,14.60
2021,07,05,01,55,14.60
2021,07,05,01,56,14.60
2021,07,05,01,57,14.60
2021,07,05,01,58,14.60
2021,07,05,01,59,14.60
2021,07,05,02,00,14.60
2021,07,05,02,01,14.60
2021,07,05,02,02,14.60
2021,07,05,02,03,14.60
2021,07,05,02,04,14.60
2021,07,05,02,05,14.60
2021,07,05,02,06,14.60
2021,07,05,02,07,14.60
2021,07,05,02,08,14.50
2021,07,05,02,09,14.50
2021,07,05,02,10,14.50
2021,07,05,02,11,14.50
2021,07,05,02,12,14.50
2021,07,05,02,13,14.50
2021,07,05,02,14,14.50
2021,07,05,02,15,14.50
2021,07,05,02,16,14.40
2021,07,05,02,17,14.40
2021,07,05,02,18,14.40
2021,07,05,02,19,14.40
2021,07,05,02,20,14.40
2021,07,05,02,21,14.40
2021,07,05,02,22,14.40
2021,07,05,02,23,14.40
2021,07,05,02,24,14.40
2021,07,05,02,25,14.40
2021,07,05,02,26,14.40
2021,07,05,02,27,14.40
2021,07,05,02,28,14.40
2021,07,05,02,29,14.40
2021,07,05,02,30,14.30
2021,07,05,02,31,14.30
2021,07,05,02,32,14.30
2021,07,05,02,33,14.30
2021,07,05,02,34,14.30
2021,07,05,02,35,14.30
2021,07,05,02,36,14.30
2021,07,05,02,37,14.30
2021,07,05,02,38,14.30
2021,07,05,02,39,14.30
2021,07,05,02,40,14.30
2021,07,05,02,41,14.30
2021,07,05,02,42,14.30
2021,07,05,02,43,14.30
2021,07,05,02,44,14.30
2021,07,05,02,45,14.30
2021,07,05,02,46,14.30
2021,07,05,02,47,14.20
2021,07,05,02,48,14.20
2021,07,05,02,49,14.20
2021,07,05,02,50,14.20
2021,07,05,02,51,14.20
2021,07,05,02,52,14.20
2021,07,05,02,53,14.30
2021,07,05,02,54,14.30
2021,07,05,02,55,14.30
2021,07,05,02,56,14.30
2021,07,05,02,57,14.30
2021,07,05,02,58,14.30
2021,07,05,02,59,14.30
2021,07,05,03,00,14.30
2021,07,05,03,01,14.30
2021,07,05,03,02,14.30
2021,07,05,03,03,14.30
2021,07,05,03,04,14.30
2021,07,05,03,05,14.30
2021,07,05,03,06,14.30
2021,07,05,03,07,14.30
2021,07,05,03,08,14.30
2021,07,05,03,09,14.30
2021,07,05,03,10,14.30
2021,07,05,03,11,14.30
2021,07,05,03,12,14.30
2021,07,05,03,13,14.30
2021,07,05,03,14,14.30
2021,07,05,03,15,14.40
2021,07,05,03,16,14.40
2021,07,05,03,17,14.40
2021,07,05,03,18,14.40
2021,07,05,03,19,14.40
2021,07,05,03,20,14.40
2021,07,05,03,21,14.40
2021,07,05,03,22,14.40
2021,07,05,03,23,14.40
2021,07,05,03,24,14.40
2021,07,05,03,25,14.40
2021,07,05,03,26,14.40
2021,07,05,03,27,14.40
2021,07,05,03,28,14.40
2021,07,05,03,29,14.40
2021,07,05,03,30,14.40
2021,07,05,03,31,14.40
2021,07,05,03,32,14.40
2021,07,05,03,33,14.40
2021,07,05,03,34,14.40
2021,07,05,03,35,14.40
2021,07,05,03,36,14.40
2021,07,05,03,37,14.40
2021,07,05,03,38,14.40
2021,07,05,03,39,14.40
2021,07,05,03,40,14.40
2021,07,05,03,41,14.40
2021,07,05,03,42,14.40
2021,07,05,03,43,14.40
2021,07,05,03,44,14.40
2021,07,05,03,45,14.40
2021,07,05,03,46,14.40
2021,07,05,03,47,14.40
2021,07,05,03,48,14.40
2021,07,05,03,49,14.40
2021,07,05,03,50,14.40
2021,07,05,03,51,14.40
2021,07,05,03,52,14.40
2021,07,05,03,53,14.40
2021,07,05,03,54,14.40
2021,07,05,03,55,14.40
2021,07,05,03,56,14.40
2021,07,05,03,57,14.40
2021,07,05,03,58,14.40
2021,07,05,03,59,14.40
2021,07,05,04,00,14.40
2021,07,05,04,01,14.40
2021,07,05,04,02,14.40
2021,07,05,04,03,14.40
2021,07,05,04,04,14.40
2021,07,05,04,05,14.40
2021,07,05,04,06,14.40
2021,07,05,04,07,14.40
2021,07,05,04,08,14.40
2021,07,05,04,09,14.40
2021,07,05,04,10,14.40
2021,07,05,04,11,14.40
2021,07,05,04,12,14.40
2021,07,05,04,13,14.40
2021,07,05,04,14,14.40
2021,07,05,04,15,14.40
2021,07,05,04,16,14.40
2021,07,05,04,17,14.40
2021,07,05,04,18,14.40
2021,07,05,04,19,14.40
2021,07,05,04,20,14.40
2021,07,05,04,21,14.40
2021,07,05,04,22,14.40
2021,07,05,04,23,14.50
2021,07,05,04,24,14.50
2021,07,05,04,25,14.50
2021,07,05,04,26,14.50
2021,07,05,04,27,14.50
2021,07,05,04,28,14.50
2021,07,05,04,29,14.50
2021,07,05,04,30,14.50
2021,07,05,04,31,14.50
2021,07,05,04,32,14.50
2021,07,05,04,33,14.50
2021,07,05,04,34,14.60
2021,07,05,04,35,14.60
2021,07,05,04,36,14.60
2021,07,05,04,37,14.60
2021,07,05,04,38,14.60
2021,07,05,04,39,14.60
2021,07,05,04,40,14.60
2021,07,05,04,41,14.60
2021,07,05,04,42,14.60
2021,07,05,04,43,14.60
2021,07,05,04,44,14.60
2021,07,05,04,45,14.70
2021,07,05,04,46,14.70
2021,07,05,04,47,14.70
2021,07,05,04,48,14.70
2021,07,05,04,49,14.70
2021,07,05,04,50,14.70
2021,07,05,04,51,14.70
2021,07,05,04,52,14.70
2021,07,05,04,53,14.70
2021,07,05,04,54,14.70
2021,07,05,04,55,14.70
2021,07,05,04,56,14.70
2021,07,05,04,57,14.80
2021,07,05,04,58,14.80
2021,07,05,04,59,14.80
2021,07,05,05,00,14.80
2021,07,05,05,01,14.80
2021,07,05,05,02,14.80
2021,07,05,05,03,14.80
2021,07,05,05,04,14.80
2021,07,05,05,05,14.80
2021,07,05,05,06,14.80
2021,07,05,05,07,14.80
2021,07,05,05,08,14.80
2021,07,05,05,09,14.80
2021,07,05,05,10,14.80
2021,07,05,05,11,14.80
2021,07,05,05,12,14.80
2021,07,05,05,13,14.80
2021,07,05,05,14,14.80
2021,07,05,05,15,14.80
2021,07,05,05,16,14.80
2021,07,05,05,17,14.90
2021,07,05,05,18,14.90
2021,07,05,05,19,14.90
2021,07,05,05,20,14.90
2021,07,05,05,21,14.90
2021,07,05,05,22,14.90
2021,07,05,05,23,14.90
2021,07,05,05,24,14.90
2021,07,05,05,25,14.90
2021,07,05,05,26,14.90
2021,07,05,05,27,14.80
2021,07,05,05,28,14.90
2021,07,05,05,29,14.90
2021,07,05,05,30,14.90
2021,07,05,05,31,14.90
2021,07,05,05,32,14.90
2021,07,05,05,33,14.90
2021,07,05,05,34,14.90
2021,07,05,05,35,14.90
2021,07,05,05,36,14.90
2021,07,05,05,37,14.90
2021,07,05,05,38,14.90
2021,07,05,05,39,14.90
2021,07,05,05,40,14.80
2021,07,05,05,41,14.80
2021,07,05,05,42,14.80
2021,07,05,05,43,14.80
2021,07,05,05,44,14.80
2021,07,05,05,45,14.80
2021,07,05,05,46,14.80
2021,07,05,05,47,14.70
2021,07,05,05,48,14.70
2021,07,05,05,49,14.70
2021,07,05,05,50,14.70
2021,07,05,05,51,14.70
2021,07,05,05,52,14.60
2021,07,05,05,53,14.60
2021,07,05,05,54,14.60
2021,07,05,05,55,14.60
2021,07,05,05,56,14.60
2021,07,05,05,57,14.60
2021,07,05,05,58,14.60
2021,07,05,05,59,14.60
2021,07,05,06,00,14.60
2021,07,05,06,01,14.60
2021,07,05,06,02,14.60
2021,07,05,06,03,14.60
2021,07,05,06,04,14.60
2021,07,05,06,05,14.60
2021,07,05,06,06,14.60
2021,07,05,06,07,14.60
2021,07,05,06,08,14.60
2021,07,05,06,09,14.60
2021,07,05,06,10,14.60
2021,07,05,06,11,14.60
2021,07,05,06,12,14.60
2021,07,05,06,13,14.60
2021,07,05,06,14,14.60
2021,07,05,06,15,14.60
2021,07,05,06,16,14.60
2021,07,05,06,17,14.60
2021,07,05,06,18,14.60
2021,07,05,06,19,14.60
2021,07,05,06,20,14.60
2021,07,05,06,21,14.60
2021,07,05,06,22,14.60
2021,07,05,06,23,14.60
2021,07,05,06,24,14.60
2021,07,05,06,25,14.70
2021,07,05,06,26,14.70
2021,07,05,06,27,14.70
2021,07,05,06,28,14.70
2021,07,05,06,29,14.70
2021,07,05,06,30,14.70
2021,07,05,06,31,14.80
2021,07,05,06,32,14.80
2021,07,05,06,33,14.80
2021,07,05,06,34,14.80
2021,07,05,06,35,14.80
2021,07,05,06,36,14.80
2021,07,05,06,37,14.80
2021,07,05,06,38,14.90
2021,07,05,06,39,14.90
2021,07,05,06,40,14.90
2021,07,05,06,41,14.90
2021,07,05,06,42,14.90
2021,07,05,06,43,15.00
2021,07,05,06,44,15.00
2021,07,05,06,45,15.00
2021,07,05,06,46,15.00
2021,07,05,06,47,15.00
2021,07,05,06,48,15.00
2021,07,05,06,49,15.00
2021,07,05,06,50,15.00
2021,07,05,06,51,15.00
2021,07,05,06,52,15.00
2021,07,05,06,53,15.10
2021,07,05,06,54,15.10
2021,07,05,06,55,15.10
2021,07,05,06,56,15.10
2021,07,05,06,57,15.10
2021,07,05,06,58,15.10
2021,07,05,06,59,15.10
2021,07,05,07,00,15.10
2021,07,05,07,01,15.10
2021,07,05,07,02,15.10
2021,07,05,07,03,15.10
2021,07,05,07,04,15.20
2021,07,05,07,05,15.20
2021,07,05,07,06,15.20
2021,07,05,07,07,15.20
2021,07,05,07,08,15.20
2021,07,05,07,09,15.30
2021,07,05,07,10,15.30
2021,07,05,07,11,15.30
2021,07,05,07,12,15.40
2021,07,05,07,13,15.40
2021,07,05,07,14,15.40
2021,07,05,07,15,15.40
2021,07,05,07,16,15.40
2021,07,05,07,17,15.50
2021,07,05,07,18,15.50
2021,07,05,07,19,15.50
2021,07,05,07,20,15.60
2021,07,05,07,21,15.60
2021,07,05,07,22,15.60
2021,07,05,07,23,15.60
2021,07,05,07,24,15.60
2021,07,05,07,25,15.60
2021,07,05,07,26,15.60
2021,07,05,07,27,15.70
2021,07,05,07,28,15.70
2021,07,05,07,29,15.70
2021,07,05,07,30,15.70
2021,07,05,07,31,15.70
2021,07,05,07,32,15.70
2021,07,05,07,33,15.70
2021,07,05,07,34,15.70
2021,07,05,07,35,15.70
2021,07,05,07,36,15.70
2021,07,05,07,37,15.60
2021,07,05,07,38,15.60
2021,07,05,07,39,15.60
2021,07,05,07,40,15.50
2021,07,05,07,41,15.50
2021,07,05,07,42,15.50
2021,07,05,07,43,15.40
2021,07,05,07,44,15.40
2021,07,05,07,45,15.40
2021,07,05,07,46,15.40
2021,07,05,07,47,15.40
2021,07,05,07,48,15.30
2021,07,05,07,49,15.30
2021,07,05,07,50,15.30
2021,07,05,07,51,15.20
2021,07,05,07,52,15.20
2021,07,05,07,53,15.20
2021,07,05,07,54,15.20
2021,07,05,07,55,15.20
2021,07,05,07,56,15.20
2021,07,05,07,57,15.20
2021,07,05,07,58,15.10
2021,07,05,07,59,15.10
2021,07,05,08,00,15.10
2021,07,05,08,01,15.10
2021,07,05,08,02,15.10
2021,07,05,08,03,15.10
2021,07,05,08,04,15.10
2021,07,05,08,05,15.10
2021,07,05,08,06,15.20
2021,07,05,08,07,15.20
2021,07,05,08,08,15.20
2021,07,05,08,09,15.20
2021,07,05,08,10,15.10
2021,07,05,08,11,15.10
2021,07,05,08,12,15.10
2021,07,05,08,13,15.20
2021,07,05,08,14,15.20
2021,07,05,08,15,15.20
2021,07,05,08,16,15.20
2021,07,05,08,17,15.20
2021,07,05,08,18,15.30
2021,07,05,08,19,15.30
2021,07,05,08,20,15.30
2021,07,05,08,21,15.30
2021,07,05,08,22,15.40
2021,07,05,08,23,15.40
2021,07,05,08,24,15.40
2021,07,05,08,25,15.50
2021,07,05,08,26,15.50
2021,07,05,08,27,15.50
2021,07,05,08,28,15.60
2021,07,05,08,29,15.60
2021,07,05,08,30,15.60
2021,07,05,08,31,15.60
2021,07,05,08,32,15.60
2021,07,05,08,33,15.70
2021,07,05,08,34,15.70
2021,07,05,08,35,15.70
2021,07,05,08,36,15.70
2021,07,05,08,37,15.80
2021,07,05,08,38,15.80
2021,07,05,08,39,15.80
2021,07,05,08,40,15.90
2021,07,05,08,41,15.90
2021,07,05,08,42,15.90
2021,07,05,08,43,16.00
2021,07,05,08,44,16.00
2021,07,05,08,45,16.00
2021,07,05,08,46,16.10
2021,07,05,08,47,16.10
2021,07,05,08,48,16.10
2021,07,05,08,49,16.20
2021,07,05,08,50,16.20
2021,07,05,08,51,16.20
2021,07,05,08,52,16.20
2021,07,05,08,53,16.20
2021,07,05,08,54,16.30
2021,07,05,08,55,16.30
2021,07,05,08,56,16.30
2021,07,05,08,57,16.40
2021,07,05,08,58,16.40
2021,07,05,08,59,16.40
2021,07,05,09,00,16.40
2021,07,05,09,01,16.40
2021,07,05,09,02,16.40
2021,07,05,09,03,16.40
2021,07,05,09,04,16.30
2021,07,05,09,05,16.30
2021,07,05,09,06,16.30
2021,07,05,09,07,16.30
2021,07,05,09,08,16.30
2021,07,05,09,09,16.30
2021,07,05,09,10,16.20
2021,07,05,09,11,16.10
2021,07,05,09,12,16.10
2021,07,05,09,13,16.00
2021,07,05,09,14,15.90
2021,07,05,09,15,15.80
2021,07,05,09,16,15.80
2021,07,05,09,17,15.80
2021,07,05,09,18,15.80
2021,07,05,09,19,15.80
2021,07,05,09,20,15.70
2021,07,05,09,21,15.70
2021,07,05,09,22,15.70
2021,07,05,09,23,15.70
2021,07,05,09,24,15.70
2021,07,05,09,25,15.80
2021,07,05,09,26,15.80
2021,07,05,09,27,15.80
2021,07,05,09,28,15.90
2021,07,05,09,29,16.00
2021,07,05,09,30,16.00
2021,07,05,09,31,16.00
2021,07,05,09,32,16.10
2021,07,05,09,33,16.10
2021,07,05,09,34,16.20
2021,07,05,09,35,16.20
2021,07,05,09,36,16.20
2021,07,05,09,37,16.30
2021,07,05,09,38,16.30
2021,07,05,09,39,16.40
2021,07,05,09,40,16.40
2021,07,05,09,41,16.50
2021,07,05,09,42,16.60
2021,07,05,09,43,16.60
2021,07,05,09,44,16.70
2021,07,05,09,45,16.70
2021,07,05,09,46,16.80
2021,07,05,09,47,16.80
2021,07,05,09,48,16.90
2021,07,05,09,49,16.90
2021,07,05,09,50,16.90
2021,07,05,09,51,16.90
2021,07,05,09,52,17.00
2021,07,05,09,53,17.00
2021,07,05,09,54,17.00
2021,07,05,09,55,17.10
2021,07,05,09,56,17.10
2021,07,05,09,57,17.10
2021,07,05,09,58,17.10
2021,07,05,09,59,17.10
2021,07,05,10,00,17.10
2021,07,05,10,01,17.10
2021,07,05,10,02,17.10
2021,07,05,10,03,17.10
2021,07,05,10,04,17.10
2021,07,05,10,05,17.10
2021,07,05,10,06,17.20
2021,07,05,10,07,17.20
2021,07,05,10,08,17.20
2021,07,05,10,09,17.10
2021,07,05,10,10,17.10
2021,07,05,10,11,17.10
2021,07,05,10,12,17.00
2021,07,05,10,13,17.00
2021,07,05,10,14,16.90
2021,07,05,10,15,16.90
2021,07,05,10,16,16.90
2021,07,05,10,17,16.90
2021,07,05,10,18,16.90
2021,07,05,10,19,16.90
2021,07,05,10,20,16.90
2021,07,05,10,21,17.00
2021,07,05,10,22,17.00
2021,07,05,10,23,17.10
2021,07,05,10,24,17.10
2021,07,05,10,25,17.10
2021,07,05,10,26,17.10
2021,07,05,10,27,17.20
2021,07,05,10,28,17.20
2021,07,05,10,29,17.20
2021,07,05,10,30,17.30
2021,07,05,10,31,17.30
2021,07,05,10,32,17.30
2021,07,05,10,33,17.30
2021,07,05,10,34,17.30
2021,07,05,10,35,17.30
2021,07,05,10,36,17.20
2021,07,05,10,37,17.20
2021,07,05,10,38,17.20
2021,07,05,10,39,17.20
2021,07,05,10,40,17.20
2021,07,05,10,41,17.20
2021,07,05,10,42,17.20
2021,07,05,10,43,17.20
2021,07,05,10,44,17.20
2021,07,05,10,45,17.20
2021,07,05,10,46,17.20
2021,07,05,10,47,17.20
2021,07,05,10,48,17.30
2021,07,05,10,49,17.30
2021,07,05,10,50,17.30
2021,07,05,10,51,17.30
2021,07,05,10,52,17.30
2021,07,05,10,53,17.30
2021,07,05,10,54,17.30
2021,07,05,10,55,17.20
2021,07,05,10,56,17.20
2021,07,05,10,57,17.20
2021,07,05,10,58,17.20
2021,07,05,10,59,17.20
2021,07,05,11,00,17.10
2021,07,05,11,01,17.10
2021,07,05,11,02,17.10
2021,07,05,11,03,17.10
2021,07,05,11,04,17.10
2021,07,05,11,05,17.10
2021,07,05,11,06,17.10
2021,07,05,11,07,17.10
2021,07,05,11,08,17.10
2021,07,05,11,09,17.00
2021,07,05,11,10,16.90
2021,07,05,11,11,16.90
2021,07,05,11,12,16.90
2021,07,05,11,13,16.90
2021,07,05,11,14,16.90
2021,07,05,11,15,16.90
2021,07,05,11,16,16.90
2021,07,05,11,17,17.00
2021,07,05,11,18,17.00
2021,07,05,11,19,17.10
2021,07,05,11,20,17.20
2021,07,05,11,21,17.20
2021,07,05,11,22,17.30
2021,07,05,11,23,17.30
2021,07,05,11,24,17.30
2021,07,05,11,25,17.40
2021,07,05,11,26,17.40
2021,07,05,11,27,17.40
2021,07,05,11,28,17.40
2021,07,05,11,29,17.40
2021,07,05,11,30,17.40
2021,07,05,11,31,17.40
2021,07,05,11,32,17.50
2021,07,05,11,33,17.50
2021,07,05,11,34,17.50
2021,07,05,11,35,17.50
2021,07,05,11,36,17.50
2021,07,05,11,37,17.40
2021,07,05,11,38,17.40
2021,07,05,11,39,17.40
2021,07,05,11,40,17.40
2021,07,05,11,41,17.40
2021,07,05,11,42,17.40
2021,07,05,11,43,17.50
2021,07,05,11,44,17.40
2021,07,05,11,45,17.40
2021,07,05,11,46,17.50
2021,07,05,11,47,17.50
2021,07,05,11,48,17.60
2021,07,05,11,49,17.60
2021,07,05,11,50,17.60
2021,07,05,11,51,17.70
2021,07,05,11,52,17.70
2021,07,05,11,53,17.70
2021,07,05,11,54,17.80
2021,07,05,11,55,17.80
2021,07,05,11,56,17.80
2021,07,05,11,57,17.80
2021,07,05,11,58,17.80
2021,07,05,11,59,17.90
2021,07,05,12,00,17.90
2021,07,05,12,01,17.90
2021,07,05,12,02,17.90
2021,07,05,12,03,18.00
2021,07,05,12,04,18.00
2021,07,05,12,05,18.00
2021,07,05,12,06,18.10
2021,07,05,12,07,18.10
2021,07,05,12,08,18.10
2021,07,05,12,09,18.10
2021,07,05,12,10,18.20
2021,07,05,12,11,18.20
2021,07,05,12,12,18.20
2021,07,05,12,13,18.20
2021,07,05,12,14,18.20
2021,07,05,12,15,18.20
2021,07,05,12,16,18.20
2021,07,05,12,17,18.20
2021,07,05,12,18,18.20
2021,07,05,12,19,18.20
2021,07,05,12,20,18.20
2021,07,05,12,21,18.20
2021,07,05,12,22,18.20
2021,07,05,12,23,18.20
2021,07,05,12,24,18.20
2021,07,05,12,25,18.20
2021,07,05,12,26,18.20
2021,07,05,12,27,18.20
2021,07,05,12,28,18.20
2021,07,05,12,29,18.20
2021,07,05,12,30,18.20
2021,07,05,12,31,18.20
2021,07,05,12,32,18.30
2021,07,05,12,33,18.30
2021,07,05,12,34,18.30
2021,07,05,12,35,18.30
2021,07,05,12,36,18.30
2021,07,05,12,37,18.30
2021,07,05,12,38,18.30
2021,07,05,12,39,18.30
2021,07,05,12,40,18.20
2021,07,05,12,41,18.10
2021,07,05,12,42,18.00
2021,07,05,12,43,18.00
2021,07,05,12,44,17.90
2021,07,05,12,45,18.00
2021,07,05,12,46,17.90
2021,07,05,12,47,17.90
2021,07,05,12,48,17.90
2021,07,05,12,49,17.90
2021,07,05,12,50,17.90
2021,07,05,12,51,17.80
2021,07,05,12,52,17.80
2021,07,05,12,53,17.80
2021,07,05,12,54,17.80
2021,07,05,12,55,17.80
2021,07,05,12,56,17.80
2021,07,05,12,57,17.80
2021,07,05,12,58,17.80
2021,07,05,12,59,17.80
2021,07,05,13,00,17.80
2021,07,05,13,01,17.80
2021,07,05,13,02,17.80
2021,07,05,13,03,17.80
2021,07,05,13,04,17.80
2021,07,05,13,05,17.80
2021,07,05,13,06,17.90
2021,07,05,13,07,17.90
2021,07,05,13,08,18.00
2021,07,05,13,09,18.00
2021,07,05,13,10,17.90
2021,07,05,13,11,18.00
2021,07,05,13,12,18.00
2021,07,05,13,13,18.10
2021,07,05,13,14,18.10
2021,07,05,13,15,18.10
2021,07,05,13,16,18.10
2021,07,05,13,17,18.10
2021,07,05,13,18,18.10
2021,07,05,13,19,18.10
2021,07,05,13,20,18.10
2021,07,05,13,21,18.10
2021,07,05,13,22,18.10
2021,07,05,13,23,18.10
2021,07,05,13,24,18.10
2021,07,05,13,25,18.10
2021,07,05,13,26,18.10
2021,07,05,13,27,18.10
2021,07,05,13,28,18.00
2021,07,05,13,29,18.00
2021,07,05,13,30,18.00
2021,07,05,13,31,18.00
2021,07,05,13,32,18.10
2021,07,05,13,33,18.10
2021,07,05,13,34,18.10
2021,07,05,13,35,18.10
2021,07,05,13,36,18.10
2021,07,05,13,37,18.10
2021,07,05,13,38,18.10
2021,07,05,13,39,18.10
2021,07,05,13,40,18.20
2021,07,05,13,41,18.20
2021,07,05,13,42,18.20
2021,07,05,13,43,18.30
2021,07,05,13,44,18.30
2021,07,05,13,45,18.30
2021,07,05,13,46,18.40
2021,07,05,13,47,18.40
2021,07,05,13,48,18.40
2021,07,05,13,49,18.50
2021,07,05,13,50,18.50
2021,07,05,13,51,18.50
2021,07,05,13,52,18.60
2021,07,05,13,53,18.60
2021,07,05,13,54,18.50
2021,07,05,13,55,18.50
2021,07,05,13,56,18.40
2021,07,05,13,57,18.40
2021,07,05,13,58,18.40
2021,07,05,13,59,18.40
2021,07,05,14,00,18.40
2021,07,05,14,01,18.40
2021,07,05,14,02,18.50
2021,07,05,14,03,18.50
2021,07,05,14,04,18.50
2021,07,05,14,05,18.50
2021,07,05,14,06,18.50
2021,07,05,14,07,18.50
2021,07,05,14,08,18.50
2021,07,05,14,09,18.40
2021,07,05,14,10,18.40
2021,07,05,14,11,18.40
2021,07,05,14,12,18.50
2021,07,05,14,13,18.50
2021,07,05,14,14,18.50
2021,07,05,14,15,18.50
2021,07,05,14,16,18.60
2021,07,05,14,17,18.60
2021,07,05,14,18,18.60
2021,07,05,14,19,18.70
2021,07,05,14,20,18.70
2021,07,05,14,21,18.80
2021,07,05,14,22,18.80
2021,07,05,14,23,18.90
2021,07,05,14,24,19.00
2021,07,05,14,25,19.00
2021,07,05,14,26,19.10
2021,07,05,14,27,19.10
2021,07,05,14,28,19.10
2021,07,05,14,29,19.10
2021,07,05,14,30,19.10
2021,07,05,14,31,19.10
2021,07,05,14,32,19.10
2021,07,05,14,33,19.10
2021,07,05,14,34,19.20
2021,07,05,14,35,19.30
2021,07,05,14,36,19.30
2021,07,05,14,37,19.40
2021,07,05,14,38,19.50
2021,07,05,14,39,19.50
2021,07,05,14,40,19.50
2021,07,05,14,41,19.50
2021,07,05,14,42,19.50
2021,07,05,14,43,19.60
2021,07,05,14,44,19.60
2021,07,05,14,45,19.70
2021,07,05,14,46,19.60
2021,07,05,14,47,19.60
2021,07,05,14,48,19.60
2021,07,05,14,49,19.50
2021,07,05,14,50,19.40
2021,07,05,14,51,19.30
2021,07,05,14,52,19.30
2021,07,05,14,53,19.20
2021,07,05,14,54,19.20
2021,07,05,14,55,19.20
2021,07,05,14,56,19.10
2021,07,05,14,57,19.10
2021,07,05,14,58,19.10
2021,07,05,14,59,19.10
2021,07,05,15,00,19.00
2021,07,05,15,01,19.00
2021,07,05,15,02,19.00
2021,07,05,15,03,19.00
2021,07,05,15,04,19.00
2021,07,05,15,05,19.10
2021,07,05,15,06,19.10
2021,07,05,15,07,19.10
2021,07,05,15,08,19.20
2021,07,05,15,09,19.20
2021,07,05,15,10,19.10
2021,07,05,15,11,19.00
2021,07,05,15,12,19.00
2021,07,05,15,13,18.90
2021,07,05,15,14,18.90
2021,07,05,15,15,18.90
2021,07,05,15,16,18.90
2021,07,05,15,17,18.80
2021,07,05,15,18,18.80
2021,07,05,15,19,18.80
2021,07,05,15,20,18.80
2021,07,05,15,21,18.70
2021,07,05,15,22,18.70
2021,07,05,15,23,18.60
2021,07,05,15,24,18.50
2021,07,05,15,25,18.50
2021,07,05,15,26,18.40
2021,07,05,15,27,18.40
2021,07,05,15,28,18.40
2021,07,05,15,29,18.40
2021,07,05,15,30,18.40
2021,07,05,15,31,18.40
2021,07,05,15,32,18.50
2021,07,05,15,33,18.50
2021,07,05,15,34,18.60
2021,07,05,15,35,18.70
2021,07,05,15,36,18.80
2021,07,05,15,37,18.80
2021,07,05,15,38,18.90
2021,07,05,15,39,19.00
2021,07,05,15,40,19.10
2021,07,05,15,41,19.20
2021,07,05,15,42,19.30
2021,07,05,15,43,19.30
2021,07,05,15,44,19.30
2021,07,05,15,45,19.30
2021,07,05,15,46,19.30
2021,07,05,15,47,19.30
2021,07,05,15,48,19.20
2021,07,05,15,49,19.20
2021,07,05,15,50,19.20
2021,07,05,15,51,19.20
2021,07,05,15,52,19.20
2021,07,05,15,53,19.20
2021,07,05,15,54,19.30
2021,07,05,15,55,19.30
2021,07,05,15,56,19.30
2021,07,05,15,57,19.30
2021,07,05,15,58,19.30
2021,07,05,15,59,19.30
2021,07,05,16,00,19.40
2021,07,05,16,01,19.40
2021,07,05,16,02,19.50
2021,07,05,16,03,19.50
2021,07,05,16,04,19.60
2021,07,05,16,05,19.60
2021,07,05,16,06,19.70
2021,07,05,16,07,19.70
2021,07,05,16,08,19.70
2021,07,05,16,09,19.70
2021,07,05,16,10,19.70
2021,07,05,16,11,19.70
2021,07,05,16,12,19.80
2021,07,05,16,13,19.70
2021,07,05,16,14,19.70
2021,07,05,16,15,19.60
2021,07,05,16,16,19.60
2021,07,05,16,17,19.50
2021,07,05,16,18,19.50
2021,07,05,16,19,19.40
2021,07,05,16,20,19.30
2021,07,05,16,21,19.30
2021,07,05,16,22,19.30
2021,07,05,16,23,19.20
2021,07,05,16,24,19.20
2021,07,05,16,25,19.20
2021,07,05,16,26,19.20
2021,07,05,16,27,19.20
2021,07,05,16,28,19.20
2021,07,05,16,29,19.20
2021,07,05,16,30,19.20
2021,07,05,16,31,19.20
2021,07,05,16,32,19.20
2021,07,05,16,33,19.10
2021,07,05,16,34,19.10
2021,07,05,16,35,19.10
2021,07,05,16,36,19.00
2021,07,05,16,37,19.00
2021,07,05,16,38,19.00
2021,07,05,16,39,18.90
2021,07,05,16,40,18.90
2021,07,05,16,41,18.90
2021,07,05,16,42,18.80
2021,07,05,16,43,18.80
2021,07,05,16,44,18.80
2021,07,05,16,45,18.70
2021,07,05,16,46,18.60
2021,07,05,16,47,18.50
2021,07,05,16,48,18.50
2021,07,05,16,49,18.40
2021,07,05,16,50,18.40
2021,07,05,16,51,18.40
2021,07,05,16,52,18.30
2021,07,05,16,53,18.30
2021,07,05,16,54,18.30
2021,07,05,16,55,18.20
2021,07,05,16,56,18.20
2021,07,05,16,57,18.10
2021,07,05,16,58,18.10
2021,07,05,16,59,18.10
2021,07,05,17,00,18.10
2021,07,05,17,01,18.10
2021,07,05,17,02,18.00
2021,07,05,17,03,17.90
2021,07,05,17,04,17.80
2021,07,05,17,05,17.80
2021,07,05,17,06,17.70
2021,07,05,17,07,17.70
2021,07,05,17,08,17.70
2021,07,05,17,09,17.60
2021,07,05,17,10,17.60
2021,07,05,17,11,17.60
2021,07,05,17,12,17.60
2021,07,05,17,13,17.60
2021,07,05,17,14,17.60
2021,07,05,17,15,17.60
2021,07,05,17,16,17.60
2021,07,05,17,17,17.60
2021,07,05,17,18,17.60
2021,07,05,17,19,17.50